When you browse on this site, cookies collect data to enhance your experience and personalize the content and advertising you see.
Visit our Privacy Policy to learn more. By continuing to use the site, you agree to this use of cookies and data.

Hourly Weather Chublovo

Today, 6 July, Monday

Time Temperature Precipitation Wind Pressure Humidity
00:00 +17°C° 0 mm 2 mps 744 mmHg 94%
01:00 +17°C° 0 mm 2 mps 744 mmHg 95%
02:00 +16°C° 0 mm 2 mps 744 mmHg 95%
03:00 +17°C° 0 mm 2 mps 744 mmHg 92%
04:00 +18°C° 0 mm 2 mps 744 mmHg 89%
05:00 +18°C° 0 mm 2 mps 744 mmHg 86%
06:00 +20°C° 0 mm 3 mps 744 mmHg 79%
07:00 +22°C° 0 mm 3 mps 744 mmHg 72%
08:00 +25°C° 0 mm 3 mps 744 mmHg 65%
09:00 +26°C° 0 mm 4 mps 744 mmHg 62%
10:00 +27°C° 0 mm 4 mps 744 mmHg 59%
11:00 +28°C° 0 mm 4 mps 744 mmHg 55%
12:00 +29°C° 0 mm 4 mps 743 mmHg 55%
13:00 +29°C° 0 mm 4 mps 743 mmHg 54%
14:00 +30°C° 0 mm 4 mps 743 mmHg 54%
15:00 +29°C° 0.1 mm 4 mps 743 mmHg 58%
16:00 +28°C° 0.1 mm 3 mps 743 mmHg 63%
17:00 +28°C° 0.1 mm 3 mps 743 mmHg 67%
18:00 +26°C° 0.1 mm 3 mps 743 mmHg 74%
19:00 +25°C° 0.1 mm 2 mps 743 mmHg 80%
20:00 +23°C° 0.1 mm 2 mps 743 mmHg 87%
21:00 +21°C° 0 mm 2 mps 743 mmHg 89%
22:00 +21°C° 0 mm 2 mps 743 mmHg 91%
23:00 +20°C° 0 mm 2 mps 743 mmHg 93%

Tomorrow, 7 July, Tuesday

Time Temperature Precipitation Wind Pressure Humidity
00:00 +20°C° 0 mm 2 mps 743 mmHg 93%
01:00 +20°C° 0 mm 2 mps 743 mmHg 94%
02:00 +19°C° 0 mm 2 mps 743 mmHg 95%
03:00 +20°C° 0 mm 2 mps 743 mmHg 93%
04:00 +20°C° 0 mm 3 mps 743 mmHg 91%
05:00 +20°C° 0 mm 3 mps 742 mmHg 89%
06:00 +22°C° 0.1 mm 3 mps 742 mmHg 84%
07:00 +24°C° 0.1 mm 3 mps 742 mmHg 79%
08:00 +26°C° 0.1 mm 3 mps 742 mmHg 74%
09:00 +27°C° 0.4 mm 3 mps 742 mmHg 70%
10:00 +28°C° 0.4 mm 3 mps 742 mmHg 66%
11:00 +29°C° 0.4 mm 3 mps 742 mmHg 62%
12:00 +29°C° 0.3 mm 4 mps 742 mmHg 60%
13:00 +30°C° 0.3 mm 4 mps 742 mmHg 57%
14:00 +32°C° 0.3 mm 4 mps 741 mmHg 55%
15:00 +30°C° 0.3 mm 3 mps 741 mmHg 59%
16:00 +29°C° 0.3 mm 2 mps 741 mmHg 62%
17:00 +28°C° 0.3 mm 2 mps 741 mmHg 66%
18:00 +27°C° 0.6 mm 1 mps 741 mmHg 73%
19:00 +25°C° 0.6 mm 1 mps 741 mmHg 79%
20:00 +23°C° 0.6 mm 1 mps 741 mmHg 86%
21:00 +22°C° 1.4 mm 1 mps 741 mmHg 89%
22:00 +22°C° 1.4 mm 1 mps 741 mmHg 92%
23:00 +21°C° 1.4 mm 1 mps 741 mmHg 95%

Day after tomorrow, 8 July, Wednesday

Time Temperature Precipitation Wind Pressure Humidity
00:00 +20°C° 0.1 mm 1 mps 741 mmHg 96%
01:00 +20°C° 0.1 mm 1 mps 740 mmHg 96%
02:00 +20°C° 0.1 mm 1 mps 740 mmHg 97%
03:00 +20°C° 2.1 mm 1 mps 740 mmHg 97%
04:00 +20°C° 2.1 mm 1 mps 741 mmHg 98%
05:00 +20°C° 2.1 mm 1 mps 741 mmHg 98%
06:00 +21°C° 0.2 mm 1 mps 741 mmHg 96%
07:00 +22°C° 0.2 mm 1 mps 741 mmHg 93%
08:00 +22°C° 0.2 mm 1 mps 741 mmHg 91%
09:00 +20°C° 0.7 mm 2 mps 741 mmHg 93%
10:00 +19°C° 0.7 mm 3 mps 742 mmHg 94%
11:00 +18°C° 0.7 mm 3 mps 742 mmHg 96%
12:00 +18°C° 0.5 mm 3 mps 742 mmHg 96%
13:00 +18°C° 0.5 mm 3 mps 742 mmHg 95%
14:00 +17°C° 0.5 mm 3 mps 743 mmHg 95%
15:00 +17°C° 0.5 mm 3 mps 743 mmHg 95%
16:00 +16°C° 0.5 mm 3 mps 743 mmHg 96%
17:00 +14°C° 0.5 mm 3 mps 744 mmHg 97%
18:00 +14°C° 0 mm 3 mps 744 mmHg 96%
19:00 +15°C° 0 mm 2 mps 744 mmHg 96%
20:00 +15°C° 0 mm 2 mps 744 mmHg 95%
21:00 +15°C° 0 mm 2 mps 745 mmHg 95%
22:00 +15°C° 0 mm 2 mps 745 mmHg 95%
23:00 +15°C° 0 mm 2 mps 745 mmHg 96%

9 July, Thursday

Time Temperature Precipitation Wind Pressure Humidity
00:00 +14°C° 0 mm 1 mps 745 mmHg 96%
01:00 +14°C° 0 mm 1 mps 745 mmHg 97%
02:00 +13°C° 0 mm 1 mps 745 mmHg 97%
03:00 +13°C° 0.3 mm 1 mps 745 mmHg 96%
04:00 +13°C° 0.3 mm 2 mps 744 mmHg 96%
05:00 +14°C° 0.3 mm 2 mps 744 mmHg 95%
06:00 +14°C° 0.9 mm 2 mps 744 mmHg 94%
07:00 +14°C° 0.9 mm 2 mps 744 mmHg 93%
08:00 +15°C° 0.9 mm 2 mps 745 mmHg 91%
09:00 +15°C° 0.1 mm 2 mps 745 mmHg 90%
10:00 +15°C° 0.1 mm 2 mps 745 mmHg 89%
11:00 +15°C° 0.1 mm 2 mps 745 mmHg 88%
12:00 +15°C° 0.8 mm 2 mps 745 mmHg 89%
13:00 +15°C° 0.8 mm 2 mps 745 mmHg 91%
14:00 +15°C° 0.8 mm 1 mps 745 mmHg 93%
15:00 +15°C° 1.2 mm 2 mps 745 mmHg 94%
16:00 +14°C° 1.2 mm 2 mps 745 mmHg 95%
17:00 +14°C° 1.2 mm 2 mps 745 mmHg 97%
18:00 +14°C° 0.9 mm 2 mps 744 mmHg 97%
19:00 +14°C° 0.9 mm 2 mps 744 mmHg 98%
20:00 +14°C° 0.9 mm 1 mps 744 mmHg 98%
21:00 +14°C° 0.1 mm 2 mps 744 mmHg 98%
22:00 +14°C° 0.1 mm 2 mps 744 mmHg 98%
23:00 +14°C° 0.1 mm 2 mps 745 mmHg 97%

10 July, Friday

Time Temperature Precipitation Wind Pressure Humidity
00:00 +13°C° 0.1 mm 3 mps 745 mmHg 97%
01:00 +13°C° 0.1 mm 3 mps 745 mmHg 96%
02:00 +13°C° 0.1 mm 3 mps 745 mmHg 96%
03:00 +13°C° 0.1 mm 3 mps 745 mmHg 95%
04:00 +12°C° 0.1 mm 3 mps 745 mmHg 95%
05:00 +12°C° 0.1 mm 4 mps 745 mmHg 95%
06:00 +13°C° 0 mm 4 mps 746 mmHg 86%
07:00 +15°C° 0 mm 5 mps 746 mmHg 77%
08:00 +16°C° 0 mm 5 mps 746 mmHg 68%
09:00 +17°C° 0 mm 5 mps 746 mmHg 61%
10:00 +19°C° 0 mm 6 mps 746 mmHg 55%
11:00 +20°C° 0 mm 6 mps 746 mmHg 49%
12:00 +21°C° 0 mm 6 mps 746 mmHg 47%
13:00 +21°C° 0 mm 6 mps 746 mmHg 46%
14:00 +21°C° 0 mm 6 mps 746 mmHg 44%
15:00 +21°C° 0 mm 5 mps 746 mmHg 46%
16:00 +21°C° 0 mm 5 mps 746 mmHg 49%
17:00 +21°C° 0 mm 4 mps 746 mmHg 51%
18:00 +19°C° 0 mm 3 mps 746 mmHg 58%
19:00 +17°C° 0 mm 3 mps 747 mmHg 64%
20:00 +15°C° 0 mm 2 mps 747 mmHg 71%
21:00 +15°C° 0 mm 2 mps 747 mmHg 73%
22:00 +14°C° 0 mm 2 mps 747 mmHg 76%
23:00 +13°C° 0 mm 2 mps 747 mmHg 79%

11 July, Saturday

Time Temperature Precipitation Wind Pressure Humidity
00:00 +12°C° 0 mm 2 mps 747 mmHg 82%
01:00 +11°C° 0 mm 3 mps 747 mmHg 84%
02:00 +11°C° 0 mm 3 mps 747 mmHg 87%
03:00 +12°C° 0 mm 3 mps 747 mmHg 86%
04:00 +13°C° 0 mm 3 mps 747 mmHg 85%
05:00 +13°C° 0 mm 3 mps 747 mmHg 85%
06:00 +15°C° 0 mm 4 mps 747 mmHg 77%
07:00 +18°C° 0 mm 4 mps 746 mmHg 69%
08:00 +20°C° 0 mm 5 mps 746 mmHg 62%
09:00 +20°C° 0.3 mm 5 mps 746 mmHg 67%
10:00 +19°C° 0.3 mm 5 mps 746 mmHg 72%
11:00 +19°C° 0.3 mm 4 mps 746 mmHg 78%
12:00 +19°C° 0.4 mm 4 mps 746 mmHg 81%
13:00 +19°C° 0.4 mm 4 mps 746 mmHg 84%
14:00 +19°C° 0.4 mm 4 mps 746 mmHg 87%
15:00 +20°C° 0.2 mm 4 mps 745 mmHg 86%
16:00 +20°C° 0.2 mm 5 mps 745 mmHg 84%
17:00 +21°C° 0.2 mm 5 mps 745 mmHg 83%
18:00 +20°C° 0 mm 4 mps 745 mmHg 81%
19:00 +19°C° 0 mm 4 mps 745 mmHg 79%
20:00 +18°C° 0 mm 4 mps 745 mmHg 78%
21:00 +16°C° 0 mm 3 mps 746 mmHg 78%
22:00 +14°C° 0 mm 3 mps 746 mmHg 78%
23:00 +13°C° 0 mm 3 mps 746 mmHg 78%
Show more